TimeAKDT,TemperatureF,Dew PointF,Humidity,Sea Level PressureIn,VisibilityMPH,Wind Direction,Wind SpeedMPH,Gust SpeedMPH,PrecipitationIn,Events,Conditions,WindDirDegrees,DateUTC
12:16 AM,15.8,12.2,86,29.61,10.0,North,6.9,-,N/A,,Clear,350,2014-04-18 08:16:00
12:36 AM,15.8,12.2,86,29.61,10.0,North,5.8,-,N/A,,Clear,350,2014-04-18 08:36:00
12:56 AM,14.0,12.2,93,29.61,10.0,North,5.8,-,N/A,,Clear,350,2014-04-18 08:56:00
1:16 AM,14.0,12.2,93,29.61,10.0,North,5.8,-,N/A,,Clear,360,2014-04-18 09:16:00
1:36 AM,14.0,12.2,93,29.61,10.0,North,5.8,-,N/A,,Clear,360,2014-04-18 09:36:00
1:56 AM,12.2,10.4,92,29.61,10.0,North,5.8,-,N/A,,Clear,350,2014-04-18 09:56:00
2:16 AM,12.2,10.4,92,29.60,10.0,North,5.8,-,N/A,,Clear,350,2014-04-18 10:16:00
2:36 AM,12.2,8.6,85,29.60,10.0,North,6.9,-,N/A,,Clear,350,2014-04-18 10:36:00
2:56 AM,12.2,8.6,85,29.60,10.0,North,5.8,-,N/A,,Clear,350,2014-04-18 10:56:00
3:16 AM,12.2,8.6,85,29.60,10.0,North,5.8,-,N/A,,Clear,350,2014-04-18 11:16:00
3:36 AM,12.2,8.6,85,29.60,10.0,North,5.8,-,N/A,,Clear,350,2014-04-18 11:36:00
3:56 AM,10.4,8.6,92,29.60,10.0,NNW,4.6,-,N/A,,Clear,340,2014-04-18 11:56:00
4:16 AM,10.4,8.6,92,29.60,10.0,North,5.8,-,N/A,,Clear,350,2014-04-18 12:16:00
4:36 AM,10.4,8.6,92,29.59,10.0,North,5.8,-,N/A,,Clear,350,2014-04-18 12:36:00
4:56 AM,10.4,6.8,85,29.59,10.0,North,6.9,-,N/A,,Clear,360,2014-04-18 12:56:00
5:16 AM,10.4,6.8,85,29.59,10.0,North,4.6,-,N/A,,Clear,360,2014-04-18 13:16:00
5:36 AM,10.4,10.4,100,29.59,10.0,NNW,4.6,-,N/A,,Clear,340,2014-04-18 13:36:00
5:56 AM,10.4,10.4,100,29.59,10.0,NNW,3.5,-,N/A,,Clear,330,2014-04-18 13:56:00
6:16 AM,10.4,8.6,92,29.59,10.0,North,4.6,-,N/A,,Clear,360,2014-04-18 14:16:00
6:36 AM,10.4,8.6,92,29.60,10.0,North,4.6,-,N/A,,Clear,360,2014-04-18 14:36:00
6:56 AM,8.6,6.8,92,29.60,10.0,North,5.8,-,N/A,,Clear,360,2014-04-18 14:56:00
7:16 AM,8.6,6.8,92,29.60,10.0,North,5.8,-,N/A,,Clear,360,2014-04-18 15:16:00
7:36 AM,8.6,6.8,92,29.60,10.0,North,5.8,-,N/A,,Clear,10,2014-04-18 15:36:00
7:56 AM,6.8,3.2,85,29.60,10.0,NNE,4.6,-,N/A,,Clear,20,2014-04-18 15:56:00
8:16 AM,8.6,6.8,92,29.60,10.0,NNE,5.8,-,N/A,,Clear,30,2014-04-18 16:16:00
8:36 AM,8.6,6.8,92,29.60,10.0,NNE,4.6,-,N/A,,Clear,30,2014-04-18 16:36:00
8:56 AM,8.6,6.8,92,29.60,10.0,NNE,4.6,-,N/A,,Clear,20,2014-04-18 16:56:00
9:16 AM,10.4,8.6,92,29.60,10.0,NNE,5.8,-,N/A,,Clear,30,2014-04-18 17:16:00
9:36 AM,10.4,8.6,92,29.61,10.0,NNE,4.6,-,N/A,,Clear,20,2014-04-18 17:36:00
9:56 AM,10.4,8.6,92,29.61,10.0,NNE,3.5,-,N/A,,Clear,20,2014-04-18 17:56:00
10:16 AM,12.2,10.4,92,29.61,10.0,Calm,Calm,-,N/A,,Clear,0,2014-04-18 18:16:00
10:36 AM,12.2,10.4,92,29.61,10.0,Calm,Calm,-,N/A,,Clear,0,2014-04-18 18:36:00
10:56 AM,12.2,10.4,92,29.62,10.0,Calm,Calm,-,N/A,,Clear,0,2014-04-18 18:56:00
11:16 AM,12.2,10.4,92,29.62,10.0,Calm,Calm,-,N/A,,Clear,0,2014-04-18 19:16:00
11:36 AM,15.8,10.4,79,29.62,10.0,North,3.5,-,N/A,,Clear,10,2014-04-18 19:36:00
11:56 AM,15.8,12.2,86,29.62,10.0,Calm,Calm,-,N/A,,Clear,0,2014-04-18 19:56:00
12:16 PM,17.6,14.0,86,29.62,10.0,Calm,Calm,-,N/A,,Clear,0,2014-04-18 20:16:00
12:36 PM,17.6,14.0,86,29.62,10.0,North,4.6,-,N/A,,Clear,350,2014-04-18 20:36:00
12:56 PM,19.4,14.0,80,29.63,10.0,North,4.6,-,N/A,,Clear,360,2014-04-18 20:56:00
1:16 PM,19.4,15.8,86,29.63,10.0,North,4.6,-,N/A,,Clear,350,2014-04-18 21:16:00
1:36 PM,21.2,17.6,86,29.63,10.0,NNE,4.6,-,N/A,,Clear,20,2014-04-18 21:36:00
1:56 PM,21.2,17.6,86,29.63,10.0,North,4.6,-,N/A,,Clear,10,2014-04-18 21:56:00
2:16 PM,23.0,17.6,80,29.63,10.0,North,5.8,-,N/A,,Clear,10,2014-04-18 22:16:00
2:36 PM,24.8,19.4,80,29.64,10.0,North,5.8,-,N/A,,Scattered Clouds,10,2014-04-18 22:36:00
2:56 PM,24.8,17.6,74,29.64,10.0,North,6.9,-,N/A,,Overcast,10,2014-04-18 22:56:00
3:16 PM,24.8,19.4,80,29.65,10.0,North,5.8,-,N/A,,Overcast,10,2014-04-18 23:16:00
3:36 PM,24.8,21.2,86,29.65,10.0,NNE,5.8,-,N/A,,Overcast,30,2014-04-18 23:36:00
3:56 PM,26.6,21.2,80,29.65,10.0,North,6.9,-,N/A,,Overcast,10,2014-04-18 23:56:00
4:16 PM,26.6,21.2,80,29.65,10.0,NNE,6.9,-,N/A,,Overcast,20,2014-04-19 00:16:00
4:36 PM,26.6,21.2,80,29.65,10.0,North,5.8,-,N/A,,Overcast,360,2014-04-19 00:36:00
4:56 PM,26.6,21.2,80,29.65,10.0,North,6.9,-,N/A,,Overcast,10,2014-04-19 00:56:00
5:16 PM,26.6,21.2,80,29.65,10.0,North,6.9,-,N/A,,Overcast,10,2014-04-19 01:16:00
5:36 PM,26.6,23.0,86,29.65,10.0,North,8.1,-,N/A,,Overcast,10,2014-04-19 01:36:00
5:56 PM,26.6,21.2,80,29.65,10.0,North,5.8,-,N/A,,Overcast,10,2014-04-19 01:56:00
6:16 PM,26.6,21.2,80,29.66,10.0,North,6.9,-,N/A,,Scattered Clouds,10,2014-04-19 02:16:00
6:36 PM,26.6,23.0,86,29.66,10.0,North,6.9,-,N/A,,Clear,10,2014-04-19 02:36:00
6:56 PM,26.6,21.2,80,29.66,10.0,North,6.9,-,N/A,,Clear,10,2014-04-19 02:56:00
7:16 PM,26.6,23.0,86,29.66,10.0,North,6.9,-,N/A,,Clear,360,2014-04-19 03:16:00
7:36 PM,26.6,23.0,86,29.66,10.0,North,5.8,-,N/A,,Clear,360,2014-04-19 03:36:00
7:56 PM,26.6,21.2,80,29.66,10.0,North,6.9,-,N/A,,Partly Cloudy,360,2014-04-19 03:56:00
8:16 PM,26.6,21.2,80,29.67,10.0,North,6.9,-,N/A,,Mostly Cloudy,10,2014-04-19 04:16:00
8:36 PM,24.8,21.2,86,29.66,10.0,North,8.1,-,N/A,,Overcast,350,2014-04-19 04:36:00
8:56 PM,24.8,21.2,86,29.67,10.0,North,8.1,-,N/A,,Overcast,360,2014-04-19 04:56:00
9:16 PM,24.8,21.2,86,29.67,10.0,North,8.1,-,N/A,,Overcast,350,2014-04-19 05:16:00
9:36 PM,24.8,21.2,86,29.67,10.0,North,8.1,-,N/A,,Overcast,350,2014-04-19 05:36:00
9:56 PM,24.8,21.2,86,29.67,10.0,North,8.1,-,N/A,,Overcast,350,2014-04-19 05:56:00
10:16 PM,24.8,21.2,86,29.68,10.0,North,6.9,-,N/A,,Overcast,360,2014-04-19 06:16:00
10:36 PM,24.8,21.2,86,29.68,10.0,North,6.9,-,N/A,,Overcast,350,2014-04-19 06:36:00
10:56 PM,23.0,19.4,86,29.68,10.0,North,6.9,-,N/A,,Overcast,350,2014-04-19 06:56:00
11:16 PM,21.2,19.4,93,29.69,10.0,North,5.8,-,N/A,,Mostly Cloudy,350,2014-04-19 07:16:00
11:36 PM,21.2,19.4,93,29.69,10.0,NNW,5.8,-,N/A,,Mostly Cloudy,340,2014-04-19 07:36:00
11:56 PM,21.2,19.4,93,29.69,10.0,North,4.6,-,N/A,,Overcast,350,2014-04-19 07:56:00